KIRK

Kirksville

Airport
ICAO code
KIRK
Summary
ICAO Region
NAM
ICAO Territory
Location

Kirksville, Adair County, Missouri,

Coordinates
40° 5' 37" N , 92° 32' 42" W
KCC
Metar
Observation
KIRK 302055Z AUTO 17018G29KT 10SM OVC050 19/07 A2985 RMK AO2 PK WND 17029/2049 SLP110 T01940072 56042
Station
Kirksville, Kirksville Regional Airport
Date/Time
2023-03-30 20:55:00
Wind direction
170°
Wind speed
18 kts
Lowest cloud amount
overcast
Temperature
19.4°C
Dew point
7.2°C
Humidity
45%
Weather condition
n/a

Description

Kirksville Regional Airport (IATA: IRK) is a public airport located 6 nm southeast of the central business district of Kirksville, a city in Adair County, Missouri, United States. The airport is located in unincorporated Adair County and is owned by the City of Kirksville. It is mostly used for general aviation, but is also served by one commercial airline.

Climatology

Humid continental climate (Köppen climate classification Dfa) - characterized by four seasons: cold, windy, snowy winters, mild springs, hot, humid summers, and crisp and relatively short autumns. Precipitation reaches its lowest in January and February and peaks in summer and latter half of spring.

Airport map

Aerial View

SKYbrary Partners:

Safety knowledge contributed by: